Location: Gwatt
(46.7204°N, 7.6223°E)
Time: 06:47:19
(UTC+00:00)

Tiros 1 despin weight - Pass Details

Date: 25 January 2021
Orbit: 593 x 642 km, 48.2° (Epoch: 06 March)

Event Time Altitude Azimuth Distance (km) Brightness Sun altitude
Rises 18:53:13 0° 287° (WNW) 2,853 ? -25.6°
Reaches altitude 10° 18:55:39 10° 279° (W) 1,941 ? -26.1°
Maximum altitude 18:59:44 37° 212° (SSW) 939 ? -26.8°
Enters shadow 18:59:51 36° 208° (SSW) 940 ? -26.8°
